Location: Turtle Rock Observatory
(36.6913°N, 81.9708°W)
Time: 19:16:42

Lacrosse 5 rocket - Visible Passes

Search period start: 05 October 2015 00:00
Search period end: 15 October 2015 00:00
Orbit: 469 x 644 km, 57.0° (Epoch: 02 October)

Date Brightness Start Highest point End Pass type
(mag) Time Alt. Az. Time Alt. Az. Time Alt. Az.
05 Oct 4.0 05:28:34 12° NNW 05:28:34 12° NNW 05:29:40 10° N visible
12 Oct 4.3 06:49:26 10° NNE 06:50:21 11° NNE 06:51:24 10° NE visible
13 Oct 4.2 06:45:26 10° N 06:47:32 13° NNE 06:49:46 10° NE visible
14 Oct 4.1 06:41:51 10° N 06:44:41 16° NNE 06:47:39 10° ENE visible
